When you browse on this site, cookies collect data to enhance your experience and personalize the content and advertising you see.
Visit our Privacy Policy to learn more. By continuing to use the site, you agree to this use of cookies and data.
  • In Hungary
  • List of Countries
  • For 7 days
  • Water Temperature
  • Satellite Maps
  • Weather Map
  • News
  • Weather Widgets
  • user-avatar
    Login

    Hourly Weather Chebika

    Today, 19 April, Friday

    Time Temperature Precipitation Wind Pressure Humidity
    00:00 +23°C° 0 mm 8 mps 751 mmHg 41%
    01:00 +22°C° 0 mm 9 mps 751 mmHg 43%
    02:00 +22°C° 0 mm 9 mps 751 mmHg 45%
    03:00 +21°C° 0 mm 9 mps 751 mmHg 47%
    04:00 +19°C° 0 mm 10 mps 751 mmHg 50%
    05:00 +19°C° 0 mm 10 mps 751 mmHg 52%
    06:00 +19°C° 0 mm 10 mps 751 mmHg 54%
    07:00 +19°C° 0 mm 11 mps 751 mmHg 55%
    08:00 +21°C° 0 mm 11 mps 751 mmHg 51%
    09:00 +23°C° 0 mm 11 mps 751 mmHg 46%
    10:00 +24°C° 0 mm 12 mps 751 mmHg 42%
    11:00 +26°C° 0 mm 12 mps 751 mmHg 39%
    12:00 +28°C° 0 mm 12 mps 751 mmHg 35%
    13:00 +29°C° 0 mm 12 mps 751 mmHg 32%
    14:00 +29°C° 0 mm 13 mps 750 mmHg 31%
    15:00 +29°C° 0 mm 13 mps 750 mmHg 31%
    16:00 +29°C° 0 mm 13 mps 749 mmHg 30%
    17:00 +28°C° 0 mm 13 mps 749 mmHg 33%
    18:00 +27°C° 0 mm 14 mps 749 mmHg 37%
    19:00 +24°C° 0 mm 14 mps 749 mmHg 40%
    20:00 +23°C° 0 mm 14 mps 749 mmHg 44%
    21:00 +22°C° 0 mm 15 mps 750 mmHg 48%
    22:00 +20°C° 0 mm 15 mps 750 mmHg 52%
    23:00 +19°C° 0 mm 15 mps 750 mmHg 55%

    Tomorrow, 20 April, Saturday

    Time Temperature Precipitation Wind Pressure Humidity
    00:00 +19°C° 0 mm 15 mps 749 mmHg 57%
    01:00 +18°C° 0 mm 15 mps 749 mmHg 60%
    02:00 +18°C° 0 mm 15 mps 749 mmHg 61%
    03:00 +17°C° 0 mm 14 mps 749 mmHg 62%
    04:00 +17°C° 0 mm 14 mps 748 mmHg 64%
    05:00 +17°C° 0 mm 14 mps 748 mmHg 63%
    06:00 +17°C° 0 mm 14 mps 748 mmHg 63%
    07:00 +17°C° 0 mm 14 mps 748 mmHg 63%
    08:00 +19°C° 0 mm 14 mps 748 mmHg 57%
    09:00 +20°C° 0 mm 14 mps 748 mmHg 51%
    10:00 +23°C° 0 mm 14 mps 748 mmHg 45%
    11:00 +24°C° 0 mm 14 mps 747 mmHg 41%
    12:00 +27°C° 0 mm 14 mps 747 mmHg 38%
    13:00 +28°C° 0 mm 14 mps 746 mmHg 34%
    14:00 +29°C° 0 mm 14 mps 745 mmHg 32%
    15:00 +29°C° 0 mm 13 mps 745 mmHg 31%
    16:00 +31°C° 0 mm 12 mps 744 mmHg 29%
    17:00 +28°C° 0 mm 12 mps 745 mmHg 32%
    18:00 +27°C° 0 mm 12 mps 745 mmHg 36%
    19:00 +26°C° 0 mm 12 mps 745 mmHg 39%
    20:00 +24°C° 0 mm 11 mps 745 mmHg 43%
    21:00 +22°C° 0 mm 11 mps 746 mmHg 48%
    22:00 +21°C° 0 mm 11 mps 746 mmHg 53%
    23:00 +21°C° 0 mm 11 mps 746 mmHg 55%

    Day after tomorrow, 21 April, Sunday

    Time Temperature Precipitation Wind Pressure Humidity
    00:00 +19°C° 0 mm 11 mps 746 mmHg 58%
    01:00 +18°C° 0 mm 11 mps 745 mmHg 61%
    02:00 +18°C° 0 mm 11 mps 745 mmHg 62%
    03:00 +18°C° 0 mm 11 mps 744 mmHg 64%
    04:00 +17°C° 0 mm 11 mps 744 mmHg 65%
    05:00 +18°C° 0 mm 11 mps 744 mmHg 64%
    06:00 +18°C° 0 mm 11 mps 743 mmHg 63%
    07:00 +18°C° 0 mm 11 mps 743 mmHg 62%
    08:00 +21°C° 0 mm 10 mps 743 mmHg 54%
    09:00 +23°C° 0 mm 10 mps 743 mmHg 46%
    10:00 +26°C° 0 mm 10 mps 743 mmHg 37%
    11:00 +28°C° 0 mm 9 mps 743 mmHg 32%
    12:00 +31°C° 0 mm 8 mps 742 mmHg 27%
    13:00 +33°C° 0 mm 7 mps 742 mmHg 22%
    14:00 +35°C° 0 mm 7 mps 741 mmHg 17%
    15:00 +36°C° 0 mm 7 mps 741 mmHg 12%
    16:00 +39°C° 0 mm 7 mps 741 mmHg 7%
    17:00 +38°C° 0 mm 6 mps 740 mmHg 8%
    18:00 +36°C° 0 mm 5 mps 740 mmHg 9%
    19:00 +35°C° 0 mm 5 mps 739 mmHg 9%
    20:00 +34°C° 0 mm 5 mps 739 mmHg 11%
    21:00 +33°C° 0 mm 5 mps 740 mmHg 12%
    22:00 +32°C° 0 mm 5 mps 740 mmHg 13%
    23:00 +30°C° 0 mm 5 mps 740 mmHg 22%

    22 April, Monday

    Time Temperature Precipitation Wind Pressure Humidity
    00:00 +28°C° 0 mm 5 mps 740 mmHg 30%
    01:00 +26°C° 0 mm 4 mps 740 mmHg 39%
    02:00 +25°C° 0 mm 4 mps 739 mmHg 41%
    03:00 +25°C° 0 mm 4 mps 739 mmHg 43%
    04:00 +23°C° 0 mm 4 mps 739 mmHg 46%
    05:00 +23°C° 0 mm 4 mps 739 mmHg 41%
    06:00 +25°C° 0 mm 4 mps 738 mmHg 36%
    07:00 +25°C° 0 mm 3 mps 738 mmHg 31%
    08:00 +26°C° 0 mm 6 mps 738 mmHg 29%
    09:00 +27°C° 0 mm 9 mps 739 mmHg 27%
    10:00 +28°C° 0 mm 13 mps 739 mmHg 25%
    11:00 +29°C° 0 mm 13 mps 739 mmHg 25%
    12:00 +29°C° 0 mm 12 mps 739 mmHg 25%
    13:00 +29°C° 0 mm 12 mps 740 mmHg 25%
    14:00 +29°C° 0 mm 12 mps 740 mmHg 25%
    15:00 +29°C° 0 mm 12 mps 740 mmHg 24%
    16:00 +29°C° 0 mm 12 mps 740 mmHg 23%
    17:00 +29°C° 0 mm 11 mps 740 mmHg 25%
    18:00 +28°C° 0 mm 10 mps 741 mmHg 27%
    19:00 +27°C° 0 mm 9 mps 741 mmHg 29%
    20:00 +26°C° 0 mm 8 mps 742 mmHg 31%
    21:00 +26°C° 0 mm 7 mps 743 mmHg 33%
    22:00 +24°C° 0 mm 6 mps 744 mmHg 35%
    23:00 +23°C° 0 mm 6 mps 744 mmHg 37%

    23 April, Tuesday

    Time Temperature Precipitation Wind Pressure Humidity
    00:00 +22°C° 0 mm 5 mps 744 mmHg 38%
    01:00 +21°C° 0 mm 4 mps 744 mmHg 39%
    02:00 +21°C° 0 mm 4 mps 744 mmHg 39%
    03:00 +21°C° 0 mm 3 mps 744 mmHg 39%
    04:00 +20°C° 0 mm 2 mps 744 mmHg 39%
    05:00 +20°C° 0 mm 2 mps 745 mmHg 39%
    06:00 +22°C° 0 mm 1 mps 745 mmHg 39%
    07:00 +22°C° 0 mm 1 mps 746 mmHg 38%
    08:00 +23°C° 0 mm 1 mps 746 mmHg 35%
    09:00 +24°C° 0 mm 1 mps 746 mmHg 32%
    10:00 +26°C° 0 mm 1 mps 747 mmHg 29%
    11:00 +27°C° 0 mm 2 mps 747 mmHg 26%
    12:00 +28°C° 0 mm 2 mps 747 mmHg 24%
    13:00 +29°C° 0 mm 3 mps 747 mmHg 22%
    14:00 +30°C° 0 mm 3 mps 746 mmHg 21%
    15:00 +30°C° 0 mm 2 mps 746 mmHg 19%
    16:00 +30°C° 0 mm 2 mps 746 mmHg 18%
    17:00 +30°C° 0 mm 2 mps 746 mmHg 19%
    18:00 +30°C° 0 mm 1 mps 746 mmHg 19%
    19:00 +30°C° 0 mm 1 mps 746 mmHg 20%
    20:00 +29°C° 0 mm 2 mps 747 mmHg 20%
    21:00 +28°C° 0 mm 2 mps 747 mmHg 21%
    22:00 +28°C° 0 mm 3 mps 747 mmHg 22%
    23:00 +27°C° 0 mm 4 mps 747 mmHg 23%

    24 April, Wednesday

    Time Temperature Precipitation Wind Pressure Humidity
    00:00 +27°C° 0 mm 5 mps 747 mmHg 24%
    01:00 +26°C° 0 mm 6 mps 747 mmHg 26%
    02:00 +26°C° 0 mm 7 mps 747 mmHg 29%
    03:00 +24°C° 0 mm 8 mps 746 mmHg 31%
    04:00 +23°C° 0 mm 8 mps 746 mmHg 34%
    05:00 +23°C° 0 mm 9 mps 746 mmHg 35%
    06:00 +23°C° 0 mm 10 mps 746 mmHg 37%
    07:00 +23°C° 0 mm 10 mps 746 mmHg 38%
    08:00 +24°C° 0 mm 11 mps 746 mmHg 35%
    09:00 +27°C° 0 mm 11 mps 746 mmHg 31%
    10:00 +29°C° 0 mm 11 mps 746 mmHg 28%
    11:00 +31°C° 0 mm 10 mps 746 mmHg 27%
    12:00 +32°C° 0 mm 9 mps 745 mmHg 25%
    13:00 +34°C° 0 mm 8 mps 745 mmHg 24%
    14:00 +35°C° 0 mm 8 mps 745 mmHg 19%
    15:00 +36°C° 0 mm 7 mps 744 mmHg 13%
    16:00 +38°C° 0 mm 7 mps 744 mmHg 8%
    17:00 +36°C° 0 mm 6 mps 744 mmHg 8%
    18:00 +36°C° 0 mm 5 mps 744 mmHg 7%
    19:00 +35°C° 0 mm 4 mps 744 mmHg 7%
    20:00 +34°C° 0 mm 4 mps 745 mmHg 8%
    21:00 +33°C° 0 mm 3 mps 745 mmHg 9%
    22:00 +31°C° 0 mm 2 mps 746 mmHg 9%
    23:00 +31°C° 0 mm 2 mps 746 mmHg 10%
    Show more